Overview Statistics Trail Chart Weather Telemetry Raw packets
 

This is the latest recevied weather packets stored in our database for station/object KQ4WWD. If no packets are shown the sender has not sent any weather packets the latest 10 day(s).

<< 1 2 3 4 5 6 >>
Time Temp. Humidity Pressure Rain* Wind** Luminosity Snow
1788651943 30° C 83% 1011.9 hPa 0 mm - 4 W/m² -
1788651639 30° C 83% 1011.8 hPa 0 mm - 8 W/m² -
1788651338 30.56° C 83% 1011.8 hPa 0 mm - 12 W/m² -
1788651043 30.56° C 83% 1011.9 hPa 0 mm - 17 W/m² -
1788650734 30.56° C 83% 1012 hPa 0 mm - 23 W/m² -
1788650429 31.11° C 81% 1012 hPa 0 mm - 31 W/m² -
1788650124 31.11° C 81% 1011.7 hPa 0 mm - 38 W/m² -
1788649821 31.67° C 80% 1011.7 hPa 0 mm - 44 W/m² -
1788649520 31.67° C 79% 1011.9 hPa 0 mm - 52 W/m² -
1788649218 31.67° C 78% 1011.7 hPa 0 mm - 56 W/m² -
1788648913 31.67° C 77% 1011.5 hPa 0 mm - 56 W/m² -
1788648609 31.11° C 79% 1011.6 hPa 0 mm - 101 W/m² -
1788648304 31.11° C 79% 1011.8 hPa 0 mm - 137 W/m² -
1788648003 30.56° C 81% 1011.6 hPa 0 mm - 145 W/m² -
1788647701 30.56° C 81% 1011.9 hPa 0 mm - 143 W/m² -
1788647396 30.56° C 81% 1011.7 hPa 0 mm - 116 W/m² -
1788647096 30° C 82% 1011.6 hPa 0 mm - 146 W/m² -
1788646791 30.56° C 81% 1011.9 hPa 0 mm - 116 W/m² -
1788646487 30.56° C 81% 1011.6 hPa 0 mm - 139 W/m² -
1788646183 30.56° C 81% 1011.7 hPa 0 mm - 155 W/m² -
1788645879 30.56° C 81% 1011.4 hPa 0 mm - 239 W/m² -
1788645578 30° C 81% 1011.9 hPa 0 mm - 269 W/m² -
1788645274 29.44° C 82% 1011.9 hPa 0 mm - 174 W/m² -
1788644970 29.44° C 81% 1012.1 hPa 0 mm - 143 W/m² -
1788644666 30° C 80% 1011.9 hPa 0 mm - 136 W/m² -

* Rain latest hour (hover to see other rain measurements)
** Current wind speed in m/s (hover to see current wind gust speed)